FW9464 Weather Reports


time (UTC)temp
C
wind
direction
speed
KPH
gust
KPH
rain 1hr
cm
rain 24hr
cm
rain mn
cm
humidity
%
barometer
mb
20260510081554 10 29 0.0 0.0 0.00 0.00 0.00 99 1026.0
20260510081051 10 195 0.0 0.0 0.00 0.00 0.00 99 1025.7
20260510080550 10 209 0.0 0.0 0.00 0.00 0.00 99 1025.7
20260510080047 10 261 0.0 1.6 0.00 0.00 0.00 99 1025.7
20260510075544 10 345 0.0 0.0 0.00 0.00 0.00 99 1025.5
20260510075041 10 345 0.0 0.0 0.00 0.00 0.00 99 1025.6
20260510074539 10 345 0.0 0.0 0.00 0.00 0.00 99 1025.5
20260510074034 10 345 0.0 0.0 0.00 0.00 0.00 99 1025.6
20260510073530 10 345 0.0 0.0 0.00 0.00 0.00 99 1025.5
20260510073027 10 345 0.0 0.0 0.00 0.00 0.00 99 1025.7
20260510072524 10 345 0.0 0.0 0.00 0.00 0.00 99 1025.7
20260510072019 10 345 0.0 0.0 0.00 0.00 0.00 99 1025.4
20260510071516 10 345 0.0 0.0 0.00 0.00 0.00 99 1025.7
20260510071014 10 345 0.0 0.0 0.00 0.00 0.00 99 1025.6
20260510070511 10 345 0.0 0.0 0.00 0.00 0.00 99 1025.7
20260510070008 10 345 0.0 0.0 0.00 0.00 0.00 99 1025.6
20260510065504 10 345 0.0 0.0 0.00 0.00 0.00 99 1025.5
20260510065000 10 345 0.0 0.0 0.00 0.00 0.00 99 1025.4
20260510064457 10 345 0.0 0.0 0.00 0.00 0.00 98 1025.4
20260510063953 10 345 0.0 0.0 0.00 0.00 0.00 98 1025.5
20260510063450 10 345 0.0 0.0 0.00 0.00 0.00 98 1025.4
20260510062948 10 345 0.0 0.0 0.00 0.00 0.00 97 1025.7
20260510062443 10 345 0.0 0.0 0.00 0.00 0.00 97 1025.5
20260510061938 10 345 0.0 0.0 0.00 0.00 0.00 96 1025.7
20260510061435 10 345 0.0 0.0 0.00 0.00 0.00 96 1025.4
20260510060931 10 345 0.0 0.0 0.00 0.00 0.00 96 1025.8
20260510060428 10 352 0.0 0.0 0.00 0.00 0.00 95 1025.8
20260510055925 10 352 0.0 0.0 0.00 0.00 0.00 95 1025.7
20260510055420 11 352 0.0 0.0 0.00 0.00 0.00 95 1026.0
20260510054913 10 352 0.0 0.0 0.00 0.00 0.00 95 1025.7
20260510054408 11 352 0.0 0.0 0.00 0.00 0.00 95 1025.7
20260510053903 10 352 0.0 0.0 0.00 0.00 0.00 95 1025.7
20260510053359 11 352 0.0 0.0 0.00 0.00 0.00 94 1025.6
20260510052855 11 352 0.0 0.0 0.00 0.00 0.00 94 1025.3
20260510052351 11 352 0.0 0.0 0.00 0.00 0.00 93 1025.4
20260510051848 11 352 0.0 0.0 0.00 0.00 0.00 93 1025.7
20260510051344 11 352 0.0 0.0 0.00 0.00 0.00 92 1025.5
20260510050841 11 352 0.0 0.0 0.00 0.00 0.00 92 1025.6
20260510050338 11 352 0.0 0.0 0.00 0.00 0.00 92 1025.4
20260510045835 11 352 0.0 0.0 0.00 0.00 0.00 92 1025.5
20260510045331 12 352 0.0 0.0 0.00 0.00 0.00 93 1025.5
20260510044829 12 352 0.0 0.0 0.00 0.00 0.00 93 1025.3
20260510044326 12 352 0.0 0.0 0.00 0.00 0.00 92 1025.5
20260510043822 12 352 0.0 0.0 0.00 0.00 0.00 92 1025.5
20260510043318 12 352 0.0 0.0 0.00 0.00 0.00 91 1025.4
20260510042816 12 352 0.0 0.0 0.00 0.00 0.00 90 1025.3
20260510042312 12 352 0.0 0.0 0.00 0.00 0.00 90 1025.5
20260510041808 12 352 0.0 0.0 0.00 0.00 0.00 90 1025.3
20260510041305 13 352 0.0 0.0 0.00 0.00 0.00 90 1025.5
20260510040803 13 352 0.0 0.0 0.00 0.00 0.00 89 1025.2
20260510040259 13 7 0.0 0.0 0.00 0.00 0.00 88 1025.1
20260510035755 13 7 0.0 0.0 0.00 0.00 0.00 89 1025.2
20260510035251 13 7 0.0 0.0 0.00 0.00 0.00 88 1025.1
20260510034747 13 7 0.0 0.0 0.00 0.00 0.00 86 1025.4
20260510034245 14 7 0.0 0.0 0.00 0.00 0.00 85 1025.2
20260510033741 14 7 0.0 0.0 0.00 0.00 0.00 84 1025.1
20260510033238 15 7 0.0 0.0 0.00 0.00 0.00 83 1025.1
20260510032734 15 7 0.0 0.0 0.00 0.00 0.00 82 1025.3
20260510032231 15 7 0.0 0.0 0.00 0.00 0.00 83 1025.1
20260510031726 15 7 0.0 0.0 0.00 0.00 0.00 82 1025.1
20260510031222 16 7 0.0 0.0 0.00 0.00 0.00 80 1025.2
20260510030721 16 7 0.0 1.6 0.00 0.00 0.00 78 1025.2
20260510030219 16 15 0.0 0.0 0.00 0.00 0.00 77 1025.2
20260510025717 16 15 0.0 0.0 0.00 0.00 0.00 74 1025.2
20260510025214 17 15 0.0 1.6 0.00 0.00 0.00 76 1025.3
20260510024710 17 74 0.0 0.0 0.00 0.00 0.00 75 1025.4
20260510024207 17 74 0.0 0.0 0.00 0.00 0.00 73 1025.2
20260510023702 17 8 0.0 3.2 0.00 0.00 0.00 70 1025.4
20260510023200 17 351 0.0 3.2 0.00 0.00 0.00 72 1025.2
20260510022656 17 7 0.0 0.0 0.00 0.00 0.00 72 1025.3
20260510022150 18 7 0.0 0.0 0.00 0.00 0.00 71 1025.1
20260510021646 18 337 0.0 1.6 0.00 0.00 0.00 68 1025.2
20260510021144 18 77 1.6 3.2 0.00 0.00 0.00 66 1025.5
20260510020638 18 270 0.0 0.0 0.00 0.00 0.00 66 1025.5
20260510020133 18 0 0.0 1.6 0.00 0.00 0.00 66 1025.8
20260510015630 18 0 1.6 4.8 0.00 0.00 0.00 64 1025.7
20260510015127 18 60 0.0 4.8 0.00 0.00 0.00 64 1025.7
20260510014621 19 40 3.2 4.8 0.00 0.00 0.00 63 1025.7
20260510014119 19 0 0.0 1.6 0.00 0.00 0.00 65 1025.9
20260510013614 18 114 3.2 3.2 0.00 0.00 0.00 63 1025.9
20260510013110 19 57 3.2 4.8 0.00 0.00 0.00 64 1025.8
20260510012608 19 151 1.6 3.2 0.00 0.00 0.00 63 1025.8
20260510012106 19 346 4.8 4.8 0.00 0.00 0.00 63 1026.1
20260510011604 19 67 4.8 4.8 0.00 0.00 0.00 62 1025.9
20260510011101 20 78 0.0 0.0 0.00 0.00 0.00 62 1026.2
20260510010558 20 83 0.0 6.4 0.00 0.00 0.00 60 1026.3
20260510010055 20 257 0.0 6.4 0.00 0.00 0.00 59 1026.0
20260510005550 20 67 4.8 8.0 0.00 0.00 0.00 57 1026.6
20260510005048 20 84 0.0 3.2 0.00 0.00 0.00 57 1026.4
20260510004545 20 154 0.0 4.8 0.00 0.00 0.00 57 1026.5
20260510004043 20 32 3.2 3.2 0.00 0.00 0.00 58 1026.6
20260510003540 20 205 4.8 8.0 0.00 0.00 0.00 57 1026.5
20260510003035 20 213 3.2 4.8 0.00 0.00 0.00 57 1026.5
20260510002531 20 255 0.0 6.4 0.00 0.00 0.00 56 1026.4
20260510002028 20 352 4.8 6.4 0.00 0.00 0.00 57 1026.5
20260510001525 20 279 0.0 1.6 0.00 0.00 0.00 57 1026.7
20260510001024 20 348 3.2 4.8 0.00 0.00 0.00 56 1026.6
20260510000518 20 17 0.0 3.2 0.00 0.00 0.00 56 1026.7
20260510000016 20 235 0.0 3.2 0.00 0.00 0.00 56 1026.8
20260509235512 20 240 0.0 4.8 0.00 0.00 0.00 56 1026.8
20260509235009 20 185 3.2 4.8 0.00 0.00 0.00 56 1026.9
20260509234505 20 83 1.6 3.2 0.00 0.00 0.00 56 1027.0
20260509234003 20 355 1.6 1.6 0.00 0.00 0.00 54 1027.1
20260509233500 20 0 0.0 3.2 0.00 0.00 0.00 55 1026.9
20260509232956 20 180 3.2 4.8 0.00 0.00 0.00 55 1027.1
20260509232455 20 165 0.0 4.8 0.00 0.00 0.00 57 1027.1
20260509231950 20 261 0.0 3.2 0.00 0.00 0.00 55 1027.2
20260509231447 21 188 0.0 3.2 0.00 0.00 0.00 58 1027.1
20260509230945 20 240 3.2 3.2 0.00 0.00 0.00 54 1027.3
20260509230441 20 107 0.0 4.8 0.00 0.00 0.00 54 1027.4
20260509225937 20 188 0.0 4.8 0.00 0.00 0.00 56 1027.6
20260509225434 20 172 0.0 4.8 0.00 0.00 0.00 55 1027.6
20260509224930 20 254 1.6 6.4 0.00 0.00 0.00 55 1027.5
20260509224425 20 180 0.0 1.6 0.00 0.00 0.00 57 1027.6
20260509223923 20 334 1.6 4.8 0.00 0.00 0.00 54 1027.7
20260509223419 20 259 3.2 6.4 0.00 0.00 0.00 56 1027.6
20260509222916 20 120 8.0 8.0 0.00 0.00 0.00 54 1027.7
20260509222406 20 209 4.8 8.0 0.00 0.00 0.00 56 1027.9
20260509221901 20 337 0.0 6.4 0.00 0.00 0.00 57 1028.2
20260509221359 20 294 0.0 4.8 0.00 0.00 0.00 60 1027.9
20260509220855 19 129 3.2 9.7 0.00 0.00 0.00 55 1027.9
20260509220351 19 151 0.0 6.4 0.00 0.00 0.00 58 1028.3
20260509215847 20 133 4.8 6.4 0.00 0.00 0.00 57 1028.2
20260509215343 20 332 4.8 6.4 0.00 0.00 0.00 56 1028.3
20260509214840 20 16 3.2 4.8 0.00 0.00 0.00 57 1028.4
20260509214338 20 165 0.0 3.2 0.00 0.00 0.00 58 1028.6
20260509213835 20 160 0.0 3.2 0.00 0.00 0.00 58 1028.3
20260509213330 20 331 3.2 4.8 0.00 0.00 0.00 61 1028.5
20260509212828 19 7 0.0 9.7 0.00 0.00 0.00 59 1028.4
20260509212326 19 173 4.8 6.4 0.00 0.00 0.00 57 1028.6
20260509211821 19 349 0.0 8.0 0.00 0.00 0.00 61 1028.6
20260509211317 18 103 1.6 6.4 0.00 0.00 0.00 61 1028.6
20260509210814 18 165 0.0 4.8 0.00 0.00 0.00 63 1028.7
20260509210312 18 238 4.8 6.4 0.00 0.00 0.00 59 1028.7
20260509205811 19 291 1.6 4.8 0.00 0.00 0.00 58 1028.8
20260509205307 20 21 3.2 4.8 0.00 0.00 0.00 63 1028.9
20260509204802 18 8 3.2 8.0 0.00 0.00 0.00 66 1028.9
20260509204258 18 324 3.2 8.0 0.00 0.00 0.00 62 1028.7
20260509203755 18 130 4.8 9.7 0.00 0.00 0.00 68 1028.9
20260509203252 18 132 3.2 8.0 0.00 0.00 0.00 65 1028.8
20260509202748 18 209 1.6 4.8 0.00 0.00 0.00 63 1028.8
20260509202244 18 180 1.6 6.4 0.00 0.00 0.00 65 1028.9
20260509201738 18 320 4.8 6.4 0.00 0.00 0.00 68 1028.9
20260509201236 17 263 1.6 11.3 0.00 0.00 0.00 67 1028.9
20260509200732 18 190 3.2 4.8 0.00 0.00 0.00 68 1029.3
20260509200227 18 159 0.0 6.4 0.00 0.00 0.00 67 1029.3
20260509195723 18 213 3.2 4.8 0.00 0.00 0.00 72 1029.2
20260509195218 17 306 0.0 4.8 0.00 0.00 0.00 68 1029.0
20260509194713 18 109 4.8 4.8 0.00 0.00 0.00 68 1029.2
20260509194210 18 143 3.2 4.8 0.00 0.00 0.00 68 1029.4
20260509193707 17 195 1.6 4.8 0.00 0.00 0.00 69 1029.6
20260509193206 17 241 3.2 6.4 0.00 0.00 0.00 68 1029.5
20260509192703 17 90 0.0 6.4 0.00 0.00 0.00 70 1029.8
20260509192158 17 10 4.8 8.0 0.00 0.00 0.00 69 1029.6
20260509191654 17 112 6.4 8.0 0.00 0.00 0.00 70 1029.9
20260509191150 17 285 6.4 9.7 0.00 0.00 0.00 70 1029.8
20260509190646 17 0 3.2 6.4 0.00 0.00 0.00 72 1029.9
20260509190144 17 354 8.0 11.3 0.00 0.00 0.00 71 1030.0
20260509185642 17 266 8.0 8.0 0.00 0.00 0.00 73 1030.0
20260509185137 17 190 3.2 6.4 0.00 0.00 0.00 69 1030.3
20260509184635 17 180 1.6 4.8 0.00 0.00 0.00 69 1030.1
20260509184132 17 131 3.2 6.4 0.00 0.00 0.00 70 1030.4
20260509183628 17 117 4.8 4.8 0.00 0.00 0.00 69 1030.2
20260509183123 17 164 4.8 4.8 0.00 0.00 0.00 70 1030.3
20260509182620 17 0 0.0 6.4 0.00 0.00 0.00 72 1030.3
20260509182117 16 0 3.2 4.8 0.00 0.00 0.00 72 1030.3
20260509181615 16 346 4.8 8.0 0.00 0.00 0.00 71 1030.1
20260509181112 16 180 4.8 8.0 0.00 0.00 0.00 72 1030.4
20260509180608 16 108 4.8 4.8 0.00 0.00 0.00 72 1030.2
20260509180105 16 74 0.0 8.0 0.00 0.00 0.00 71 1030.2
20260509175601 16 257 3.2 3.2 0.00 0.00 0.00 69 1030.3
20260509175058 15 74 0.0 4.8 0.00 0.00 0.00 73 1030.3
20260509174554 15 334 4.8 12.9 0.00 0.00 0.00 74 1030.2
20260509174049 15 314 6.4 6.4 0.00 0.00 0.00 73 1030.3
20260509173544 16 2 4.8 6.4 0.00 0.00 0.00 75 1030.4
20260509173040 16 180 3.2 4.8 0.00 0.00 0.00 74 1030.4
20260509172538 15 95 6.4 6.4 0.00 0.00 0.00 74 1030.4
20260509172033 15 174 4.8 9.7 0.00 0.00 0.00 75 1030.5
20260509171529 16 98 1.6 1.6 0.00 0.00 0.00 77 1030.4
20260509171026 15 173 6.4 6.4 0.00 0.00 0.00 77 1030.6
20260509170522 15 0 0.0 4.8 0.00 0.00 0.00 77 1030.7
20260509170018 15 331 0.0 4.8 0.00 0.00 0.00 79 1030.6
20260509165516 14 0 0.0 4.8 0.00 0.00 0.00 81 1030.5
20260509165013 14 324 3.2 8.0 0.00 0.00 0.00 81 1030.8
20260509164509 14 1 6.4 8.0 0.00 0.00 0.00 82 1030.5
20260509164004 15 342 3.2 4.8 0.00 0.00 0.00 80 1030.5
20260509163502 15 14 3.2 3.2 0.00 0.00 0.00 82 1030.7
20260509163001 14 237 0.0 4.8 0.00 0.00 0.00 83 1030.7
20260509162500 14 192 0.0 3.2 0.00 0.00 0.00 83 1030.8
20260509161955 13 198 3.2 3.2 0.00 0.00 0.00 83 1030.8
20260509161452 14 102 6.4 6.4 0.00 0.00 0.00 82 1030.8
20260509160947 14 151 6.4 6.4 0.00 0.00 0.00 85 1030.9
20260509160444 13 107 4.8 8.0 0.00 0.00 0.00 85 1030.9
20260509155938 13 111 4.8 8.0 0.00 0.00 0.00 85 1031.2
20260509155436 13 328 0.0 3.2 0.00 0.00 0.00 89 1031.0
20260509154932 12 0 1.6 4.8 0.00 0.00 0.00 90 1031.1
20260509154428 11 12 4.8 8.0 0.00 0.00 0.00 93 1031.0
20260509153926 11 97 4.8 4.8 0.00 0.00 0.00 97 1031.2
20260509153422 11 21 0.0 3.2 0.00 0.00 0.00 99 1031.2
20260509152920 11 345 0.0 3.2 0.00 0.00 0.00 99 1031.4
20260509152415 11 131 0.0 0.0 0.00 0.00 0.00 99 1031.3
20260509151912 10 131 0.0 3.2 0.00 0.00 0.00 99 1031.3
20260509151408 10 21 3.2 4.8 0.00 0.00 0.00 99 1031.2
20260509150907 10 334 0.0 9.7 0.00 0.00 0.00 99 1031.4
20260509150404 10 0 0.0 4.8 0.00 0.00 0.00 99 1031.4
20260509145902 10 346 1.6 8.0 0.00 0.00 0.00 99 1031.4
20260509145401 9 51 6.4 9.7 0.00 0.00 0.00 99 1031.4
20260509144858 10 352 0.0 3.2 0.00 0.00 0.00 99 1031.4
20260509144355 9 41 3.2 6.4 0.00 0.00 0.00 99 1031.4
20260509143852 9 72 0.0 6.4 0.00 0.00 0.00 99 1031.5
20260509143349 10 346 0.0 3.2 0.00 0.00 0.00 99 1031.4
20260509142845 10 73 0.0 4.8 0.00 0.00 0.00 99 1031.4
20260509142342 10 348 0.0 1.6 0.00 0.00 0.00 99 1031.4
20260509141837 9 83 0.0 4.8 0.00 0.00 0.00 99 1031.5
20260509141335 10 75 0.0 1.6 0.00 0.00 0.00 99 1031.5
20260509140831 8 83 0.0 1.6 0.00 0.00 0.00 99 1031.4
20260509140328 9 0 0.0 1.6 0.00 0.00 0.00 99 1031.4
20260509135826 8 8 0.0 0.0 0.00 0.00 0.00 99 1031.5
20260509135323 7 352 3.2 4.8 0.00 0.00 0.00 99 1031.3
20260509134821 7 23 0.0 1.6 0.00 0.00 0.00 99 1031.3
20260509134318 7 102 0.0 3.2 0.00 0.00 0.00 99 1031.3
20260509133815 7 40 0.0 0.0 0.00 0.00 0.00 99 1031.2
20260509133311 6 40 0.0 0.0 0.00 0.00 0.00 99 1031.2
20260509132810 6 40 0.0 1.6 0.00 0.00 0.00 99 1031.2
20260509132308 6 66 0.0 0.0 0.00 0.00 0.00 99 1031.4
20260509131804 6 66 0.0 0.0 0.00 0.00 0.00 99 1031.3
20260509131301 6 229 0.0 0.0 0.00 0.00 0.00 99 1031.1
20260509130757 6 229 0.0 0.0 0.00 0.00 0.00 99 1031.4
20260509130253 7 229 0.0 0.0 0.00 0.00 0.00 99 1031.2
20260509125750 7 229 0.0 0.0 0.00 0.00 0.00 99 1031.5
20260509125247 7 229 0.0 0.0 0.00 0.00 0.00 99 1031.5
20260509124743 7 229 0.0 0.0 0.00 0.00 0.00 99 1031.3
20260509124240 7 229 0.0 0.0 0.00 0.00 0.00 99 1031.4
20260509123738 7 23 0.0 0.0 0.00 0.00 0.00 99 1031.3
20260509123235 7 120 0.0 0.0 0.00 0.00 0.00 99 1031.3
20260509122731 7 120 0.0 0.0 0.00 0.00 0.00 99 1031.5
20260509122228 7 120 0.0 1.6 0.00 0.00 0.00 99 1031.6
20260509121725 7 106 0.0 0.0 0.00 0.00 0.00 99 1031.4
20260509121222 6 106 0.0 0.0 0.00 0.00 0.00 99 1031.6
20260509120720 6 66 0.0 1.6 0.00 0.00 0.00 99 1031.6
20260509120218 6 23 0.0 0.0 0.00 0.00 0.00 99 1031.5
20260509115715 6 23 0.0 3.2 0.00 0.00 0.00 99 1031.5
20260509115212 6 74 0.0 0.0 0.00 0.00 0.00 99 1031.7
20260509114711 6 74 0.0 0.0 0.00 0.00 0.00 99 1031.7
20260509114209 6 74 0.0 0.0 0.00 0.00 0.00 99 1031.6
20260509113707 6 74 0.0 0.0 0.00 0.00 0.00 99 1031.8
20260509113204 6 74 0.0 0.0 0.00 0.00 0.00 99 1031.8
20260509112701 6 74 0.0 0.0 0.00 0.00 0.00 99 1031.9
20260509112158 6 74 0.0 0.0 0.00 0.00 0.00 99 1031.8
20260509111655 6 74 0.0 0.0 0.00 0.00 0.00 99 1031.9
20260509111151 6 66 0.0 0.0 0.00 0.00 0.00 99 1032.1
20260509110649 6 66 0.0 1.6 0.00 0.00 0.00 99 1031.9
20260509110146 6 74 0.0 0.0 0.00 0.00 0.00 99 1032.1
20260509105644 6 74 0.0 0.0 0.00 0.00 0.00 99 1032.1
20260509105141 6 74 0.0 0.0 0.00 0.00 0.00 99 1032.1
20260509104638 6 74 0.0 0.0 0.00 0.00 0.00 99 1031.9
20260509104135 7 23 0.0 0.0 0.00 0.00 0.00 99 1032.2
20260509103633 7 23 0.0 0.0 0.00 0.00 0.00 99 1031.9
20260509103130 7 40 0.0 0.0 0.00 0.00 0.00 99 1032.1
20260509102628 7 40 0.0 0.0 0.00 0.00 0.00 99 1031.9
20260509102125 7 40 0.0 0.0 0.00 0.00 0.00 99 1032.0
20260509101621 7 40 0.0 0.0 0.00 0.00 0.00 99 1032.0
20260509101118 7 40 0.0 0.0 0.00 0.00 0.00 99 1031.9
20260509100615 7 40 0.0 0.0 0.00 0.00 0.00 99 1031.9
20260509100112 7 40 0.0 1.6 0.00 0.00 0.00 99 1032.1
20260509095608 7 114 0.0 0.0 0.00 0.00 0.00 99 1032.2
20260509095106 7 99 0.0 0.0 0.00 0.00 0.00 99 1032.0
20260509094602 8 99 0.0 0.0 0.00 0.00 0.00 99 1032.1
20260509094059 8 99 0.0 0.0 0.00 0.00 0.00 99 1032.0
20260509093558 8 99 0.0 0.0 0.00 0.00 0.00 99 1031.9
20260509093055 8 99 0.0 0.0 0.00 0.00 0.00 99 1032.1
20260509092552 8 99 0.0 0.0 0.00 0.00 0.00 99 1032.2
20260509092051 9 99 0.0 0.0 0.00 0.00 0.00 99 1032.2
20260509091548 9 254 0.0 0.0 0.00 0.00 0.00 99 1032.1
20260509091044 9 254 0.0 0.0 0.00 0.00 0.00 99 1032.3
20260509090542 9 346 0.0 1.6 0.00 0.00 0.00 99 1032.2
20260509090040 10 81 0.0 4.8 0.00 0.00 0.00 99 1032.3
20260509085537 9 352 0.0 3.2 0.00 0.00 0.00 99 1032.1
20260509085032 9 114 0.0 1.6 0.00 0.00 0.00 99 1032.1
20260509084530 9 229 0.0 0.0 0.00 0.00 0.00 99 1032.2
20260509084027 9 246 0.0 0.0 0.00 0.00 0.00 99 1032.4
20260509083525 10 172 0.0 0.0 0.00 0.00 0.00 99 1032.3
20260509083021 10 81 0.0 0.0 0.00 0.00 0.00 99 1032.3
20260509082518 10 261 0.0 3.2 0.00 0.00 0.00 99 1032.2
20260509082015 10 105 0.0 6.4 0.00 0.00 0.00 99 1032.5